Weather History for Kalamazoo, MI

Change the Weather History Date:

Saturday, September 1, 2012

  Actual Average Record
Temperature  
Mean Temperature 75 °F 68 °F  
Max Temperature 82 °F 78 °F 100 °F (1953)
Min Temperature 68 °F 57 °F 44 °F (1967)
Degree Days  
Heating Degree Days 0 1  
Month to date heating degree days 0 1  
Since 1 July heating degree days 10 17  
Cooling Degree Days 10 4  
Month to date cooling degree days 10 4  
Year to date cooling degree days 977 615  
Growing Degree Days 26 (Base 50)    
Moisture  
Dew Point 65 °F    
Average Humidity 69    
Maximum Humidity 87    
Minimum Humidity 50    
Precipitation  
Precipitation 0.07 in 0.17 in 1.23 in (1950)
Month to date precipitation 0.07 0.17  
Year to date precipitation 17.88 23.76  
Sea Level Pressure  
Sea Level Pressure 30.07 in    
Wind  
Wind Speed 4 mph (East)    
Max Wind Speed 10 mph    
Max Gust Speed 16 mph    
Visibility 9 miles    
Events Rain    
T = Trace of Precipitation, MM = Missing Value Source: NWS Daily Summary

Daily Weather History Graph

Daily Weather History Graph

Search for Another Location

Airport:

Trip Planner

Search our weather history database for the weather conditions in past years. The results will help you decide how hot, cold, wet, or windy it might be!

Date:

Astronomy

Sep. 01, 2012 Rise Set
Actual Time 7:08 AM EDT 8:15 PM EDT
Civil Twilight 6:39 AM EDT 8:43 PM EDT
Nautical Twilight 6:04 AM EDT 9:18 PM EDT
Astronomical Twilight 5:28 AM EDT 9:54 PM EDT
Moon 8:28 PM EDT (9/1) 8:17 AM EDT (9/1)
Length of Visible Light 14h 04m
Length of Day
13h 07m
Full, 99% of the Moon is Illuminated
Sep 1
Full
Sep 8
Last Quarter
Sep 15
New
Sep 22
First Quarter
Sep 29
Full

Hourly Weather History & Observations

Time (EDT) Temp. Heat Index Dew Point Humidity Pressure Visibility Wind Dir Wind Speed Gust Speed Precip Events Conditions
12:53 AM 73.0 °F - 69.1 °F 87% 30.08 in 9.0 mi Calm Calm - N/A   Clear
1:53 AM 73.0 °F - 68.0 °F 84% 30.09 in 8.0 mi Calm Calm - N/A   Clear
2:53 AM 73.0 °F - 64.0 °F 73% 30.09 in 10.0 mi NE 4.6 mph - N/A   Scattered Clouds
3:53 AM 72.0 °F - 60.1 °F 66% 30.08 in 10.0 mi NNE 4.6 mph - N/A   Clear
4:53 AM 71.1 °F - 57.9 °F 63% 30.09 in 10.0 mi Variable 3.5 mph - N/A   Mostly Cloudy
5:53 AM 69.1 °F - 57.9 °F 68% 30.09 in 10.0 mi NE 3.5 mph - N/A   Clear
6:53 AM 69.1 °F - 57.9 °F 68% 30.09 in 10.0 mi Variable 5.8 mph - N/A   Clear
7:53 AM 69.1 °F - 57.9 °F 68% 30.10 in 10.0 mi Variable 3.5 mph - N/A   Clear
8:53 AM 71.1 °F - 57.9 °F 63% 30.11 in 10.0 mi Variable 4.6 mph - N/A   Clear
9:53 AM 73.9 °F - 57.9 °F 57% 30.12 in 10.0 mi East 8.1 mph - N/A   Clear
10:53 AM 77.0 °F - 57.9 °F 52% 30.11 in 10.0 mi East 8.1 mph - N/A   Clear
11:53 AM 78.1 °F - 62.1 °F 58% 30.09 in 10.0 mi Variable 4.6 mph - N/A   Clear
12:53 PM 81.0 °F 82.5 °F 64.0 °F 56% 30.09 in 10.0 mi Variable 3.5 mph - N/A   Clear
1:48 PM 82.4 °F 84.6 °F 66.2 °F 58% 30.09 in 10.0 mi Variable 4.6 mph - N/A   Mostly Cloudy
1:53 PM 81.0 °F 83.0 °F 66.0 °F 60% 30.07 in 10.0 mi ESE 4.6 mph - N/A   Mostly Cloudy
2:53 PM 80.1 °F 82.3 °F 66.9 °F 64% 30.07 in 10.0 mi SE 3.5 mph - N/A   Overcast
3:51 PM 75.2 °F - 69.8 °F 83% 30.07 in 1.8 mi South 5.8 mph - 0.06 in Rain Rain
3:53 PM 75.0 °F - 70.0 °F 84% 30.05 in 1.8 mi South 6.9 mph - 0.06 in Rain Rain
3:59 PM 73.4 °F - 71.6 °F 94% 30.07 in 3.0 mi Calm Calm - 0.01 in Rain Rain
4:53 PM 73.4 °F - 71.6 °F 94% 30.05 in 10.0 mi NE 6.9 mph - N/A   Overcast
5:38 PM 75.2 °F - 71.6 °F 89% 30.04 in 10.0 mi NE 4.6 mph - N/A   Mostly Cloudy
5:49 PM 75.2 °F - 71.6 °F 89% 30.04 in 10.0 mi Calm Calm - N/A   Mostly Cloudy
5:53 PM 75.0 °F - 71.1 °F 87% 30.03 in 10.0 mi East 4.6 mph - N/A   Mostly Cloudy
6:53 PM 75.9 °F - 71.1 °F 85% 30.03 in 10.0 mi Calm Calm - N/A   Overcast
7:53 PM 75.0 °F - 71.1 °F 87% 30.04 in 10.0 mi Calm Calm - N/A   Mostly Cloudy
8:17 PM 73.4 °F - 69.8 °F 88% 30.05 in 10.0 mi Calm Calm - N/A   Overcast
8:32 PM 73.4 °F - 69.8 °F 88% 30.04 in 10.0 mi Calm Calm - N/A   Overcast
8:53 PM 73.9 °F - 69.1 °F 85% 30.04 in 10.0 mi NE 3.5 mph - N/A   Overcast
9:53 PM 73.0 °F - 64.9 °F 76% 30.03 in 10.0 mi ENE 4.6 mph - N/A   Mostly Cloudy
10:53 PM 72.0 °F - 64.0 °F 76% 30.03 in 10.0 mi ENE 4.6 mph - N/A   Overcast
11:10 PM 71.6 °F - 62.6 °F 73% 30.04 in 10.0 mi ENE 4.6 mph - N/A   Overcast
11:53 PM 71.6 °F - 60.8 °F 69% 30.04 in 10.0 mi East 5.8 mph - N/A   Clear